星链-4576 (STARLINK-4576 )

导读

STARLINK-4576是美国太空探索技术公司(SpaceX)星链互联网卫星星座中的一颗卫星,于2022年8月19日发射升空,属于星链计划Group 4批次卫星,主要用于为全球提供高速互联网接入服务,目前已在近地轨道运行,是星链全球组网进程中的组成部分。

基本信息
目录编号:
53566
目录名称:
STARLINK-4576
国际标识:
2022-101AR
轨道中心:
EARTH
卫星名称:
星链-4576
卫星全名:
星链-4576 (STARLINK-4576 )
卫星状态:
在轨 (已飞行1477 天)
发射日期:
2022-08-19 UTC
国别 :
美国 (US)
星等 :
--
轨道信息
数据来源 国际轨道数据
星历时间: 2026-09-03T23:23:35+0800
14小时前
查看轨道信息
半长轴: 6840.867km
偏心率: 0.0001031
轨道倾角: 53.161°
近地点辐角 82.798°
升交点赤经 322.520°
平近点角 277.314°
近地点: 462.024km
远地点: 463.436km
周期: 93.848分钟
每日圈数: 15.343912
详细信息
固有亮度:
5
最大亮度:
2.5
卫星平台:
Starlink v1.5
覆盖范围:
全球
运营商:
太空探索技术公司
运营商所在国:
美国
制造商(研发单位):
太空探索技术公司
制造商所在国:
美国
使用方式:
暂无
卫星简介
星链(Starlink)计划是由太空探索技术公司(SpaceX)提出的一个巨型低轨卫星互联网星座项目,计划在2019年至2024年间在太空搭建由约1.2万颗卫星组成的“星链”网络,其中1584颗将部署在地球上空550千米处的近地轨道,并从2020年开始工作。该卫星仍在工作。
2D轨道图
3D轨道图
轨道高度分析图
轨道倾角分析图
轨道综合分析图
查看轨道综合分析图